STARLINK-35970

Last updated on Wed Dec 31 2025 00:02:06 GMT+0000 (Coordinated Universal Time)

1 66618U 25271B 25364.56584552 .00060999 00000+0 15245-2 0 9995 2 66618 53.1603 102.4118 0001205 74.5742 285.5396 15.39586212 6962
UTC large
Height (km)
Speed (km/s)
/
Latitude / Longitude
Inclination (degrees)
Orbital Period (minutes)
Azimuth
Elevation
Range (km)
Doppler Factor

Next 0 passes for location: London (51.5072 / 0.1276)

Sorry there are no passes over London.